This demonstration page uses our WeatherBlox Daily Observations layout. Learn more.

Left ArrowRight Arrow

36.17497, -115.13722

Hourly Observations for August 11, 2019

Temp ( °F °C ) Dew Point ( °F °C ) Humidity (%) Winds ( mph kmh ) Pressure ( in mb ) Visibility ( mi km ) Precip ( " mm )
12:53 am 00:53 Clear 85 29.4 35 1.7 17 17 SSW 9 15 29.81 1009 10 16 0.00 0.00
1:53 am 01:53 Clear 83 28.3 36 2.2 19 19 SW 12 19 29.80 1009 10 16 0.00 0.00
2:53 am 02:53 Clear 81 27.2 38 3.3 21 21 SSW 10 17 29.81 1010 10 16 0.00 0.00
3:53 am 03:53 Clear 80 26.7 39 3.9 23 23 S 13 20 29.81 1010 10 16 0.00 0.00
4:53 am 04:53 Clear 78 25.6 39 3.9 25 25 ENE 3 6 29.84 1011 10 16 0.00 0.00
5:53 am 05:53 Clear 74 23.3 36 2.2 25 25 NW 8 13 29.88 1012 10 16 0.00 0.00
6:53 am 06:53 Sunny 75 23.9 38 3.3 26 26 NW 3 6 29.91 1013 10 16 0.00 0.00
7:53 am 07:53 Sunny 77 25 40 4.4 26 26 Calm 29.93 1014 10 16 0.00 0.00
8:53 am 08:53 Sunny 83 28.3 41 5 23 23 Calm 29.93 1013 10 16 0.00 0.00
9:53 am 09:53 Sunny 87 30.6 41 5 20 20 E 12 19 29.92 1013 10 16 0.00 0.00
10:53 am 10:53 Sunny 91 32.8 37 2.8 15 15 S 15 24 29.92 1013 10 16 0.00 0.00
11:53 am 11:53 Sunny 94 34.4 32 0 11 11 S 18 30 29.90 1013 10 16 0.00 0.00
12:53 pm 12:53 Sunny 95 35 31 -0.6 10 10 S 18 30 29.88 1012 10 16 0.00 0.00
1:53 pm 13:53 Sunny 96 35.6 31 -0.6 10 10 SW 14 22 29.85 1011 10 16 0.00 0.00
2:53 pm 14:53 Sunny 98 36.7 29 -1.7 9 9 S 16 26 29.83 1010 10 16 0.00 0.00
3:53 pm 15:53 Sunny 98 36.7 26 -3.3 8 8 SSW 14 22 29.82 1010 10 16 0.00 0.00
4:53 pm 16:53 Sunny 98 36.7 23 -5 7 7 SW 8 13 29.81 1010 10 16 0.00 0.00
5:53 pm 17:53 Sunny 98 36.7 20 -6.7 6 6 WSW 14 22 29.80 1009 10 16 0.00 0.00
6:53 pm 18:53 Sunny 97 36.1 18 -7.8 6 6 SW 13 20 29.81 1010 10 16 0.00 0.00
7:53 pm 19:53 Clear 94 34.4 20 -6.7 7 7 WSW 9 15 29.83 1010 10 16 0.00 0.00
8:53 pm 20:53 Clear 93 33.9 22 -5.6 7 7 SW 9 15 29.84 1011 10 16 0.00 0.00
9:53 pm 21:53 Clear 88 31.1 25 -3.9 10 10 S 7 11 29.87 1011 10 16 0.00 0.00
10:53 pm 22:53 Clear 87 30.6 26 -3.3 11 11 SSW 8 13 29.87 1011 10 16 0.00 0.00
11:53 pm 23:53 Clear 84 28.9 26 -3.3 12 12 Calm 29.88 1012 10 16 0.00 0.00

Powered by AerisWeather